Tracking 20241 objects as of 25-Jan-2020
HD Live streaming from Space Station
objects crossing your sky now

COSMOS 2251 DEB

Track COSMOS 2251 DEB now!
10-day predictions


NORAD ID: 33762
Int'l Code: 1993-036K
Perigee: 778.3 km
Apogee: 799.6 km
Inclination: 74.0 °
Period: 100.5 minutes
Semi major axis: 7159 km
RCS: 0.07 m2 (small)
Launch date: June 16, 1993
Source: Commonwealth of Independent States (former USSR) (CIS)
Launch site: PLESETSK MISSILE AND SPACE COMPLEX (PKMTR)

Note: This is SATELLITE DEBRIS
aabbcc
Your satellite tracking list
Your tracking list is empty




NASA's NSSDC Master Catalog

Two Line Element Set (TLE):
1 33762U 93036K   20024.78281771  .00000004  00000-0  10904-4 0  9993
2 33762  74.0419 275.7184 0014927 149.9977 271.2042 14.32974086572692
Source of the keplerian elements: AFSPC